{"data":{"norad_id":56918,"epoch":"2026-05-24T22:48:26.473824Z","epoch_age_seconds":79106,"freshness":"FRESH","line1":"1 56918U 23083AU  26144.95030641 -.00000173  00000+0  32429-5 0  9996","line2":"2 56918  43.0028 359.7869 0001135 257.2921 102.7803 15.27574917163462","mean_motion":15.27574917,"eccentricity":0.0001135,"inclination_deg":43.0028,"raan_deg":359.7869,"arg_perigee_deg":257.2921,"mean_anomaly_deg":102.7803,"bstar":3.2429e-6,"rev_number":16346,"period_min":94.267062385916,"perigee_km":482.28557006305,"apogee_km":483.84306276187,"semimajor_km":6861.2013164125,"source":"CELESTRAK","updated_at":"2026-05-25T13:38:18.205529Z"}}